Regional Weather Roundup
Issued by NWS Northern Indiana

Home | Current Version | Previous Version | Graphics & Text | Print | Product List | Glossary On
Versions: 1 2 3 4 5 6 7 8 9 10 11 12 13 14 15 16 17 18 19 20 21 22 23 24 25 26 27 28 29 30 31 32 33 34 35 36 37 38 39 40 41 42 43 44 45 46 47 48 49 50
000
ASUS43 KIWX 161510
RWRIWX

KIWX WEATHER ROUNDUP
NATIONAL WEATHER SERVICE NORTHERN INDIANA
1100 AM EDT TUE SEP 16 2014

NOTE: "FAIR" INDICATES FEW OR NO CLOUDS BELOW 12,000 FEET WITH NO
SIGNIFICANT WEATHER AND/OR OBSTRUCTIONS TO VISIBILITY.

* THESE STATIONS ARE NOT UNDER NWS QUALITY CONTROL. THEY ALSO MAY NOT
  REPORT WEATHER SUCH AS PRECIPITATION OR FOG.

INZ001>027-161600-
NORTHERN INDIANA

CITY           SKY/WX    TMP DP  RH WIND       PRES   REMARKS
GARY*          MOSUNNY   61  50  67 W7        30.22R
VALPARAISO     SUNNY     59  50  72 E3        30.22R
MICHIGAN CITY* CLOUDY    59  50  72 S6        30.21S
LAPORTE*       SUNNY     58  50  76 S3        30.21S
KNOX*          SUNNY     58  48  71 E3        30.20S
SOUTH BEND     NOT AVBL
GOSHEN         SUNNY     59  46  62 N6        30.20S
MONTICELLO*    SUNNY     58  50  76 CALM      30.21S
LOGANSPORT*    MOSUNNY   55  48  76 NE6       30.22S
ROCHESTER*     SUNNY     59  50  72 NE6       30.22S
WARSAW*        SUNNY     55  48  76 N3        30.21S
ANGOLA*        MOSUNNY   57  48  72 CALM      30.19F
FORT WAYNE     PTSUNNY   56  50  80 NW7       30.21S
HUNTINGTON*    CLOUDY    53  52  96 N5        30.20S
PERU/GRISSOM   PTSUNNY   56  55  99 NE6       30.21S
MARION*        MOSUNNY   56  48  76 NE6       30.21S

$$
INZ028>050-161600-
CENTRAL INDIANA

CITY           SKY/WX    TMP DP  RH WIND       PRES   REMARKS
LAFAYETTE      CLOUDY    56  51  84 N5        30.21S
KOKOMO*        PTSUNNY   57  50  77 N7        30.21S
MUNCIE*        MOSUNNY   58  49  72 NE3       30.20R
INDIANAPOLIS   PTSUNNY   55  49  80 NE6       30.21S

$$
MIZ043>046-050>051-056>058-064>065-071>073-077>080-161600-
SOUTHWEST LOWER MICHIGAN

CITY           SKY/WX    TMP DP  RH WIND       PRES   REMARKS
BATTLE CREEK   SUNNY     58  48  69 CALM      30.19S
BENTON HARBOR  SUNNY     59  49  69 CALM      30.19S
COLDWATER*     SUNNY     58  48  71 N5        30.19S
HILLSDALE*     MOSUNNY   57  48  72 CALM      30.18F
HOLLAND        MOSUNNY   62  52  69 NW3       30.19S
GRAND RAPIDS   MOSUNNY   58  52  80 W5        30.19S
KALAMAZOO      SUNNY     60  48  64 CALM      30.20S
STURGIS*       SUNNY     55  46  71 CALM      30.19S
THREE RIVERS*  FAIR      58  48  70 CALM      30.19F

$$
OHZ001>008-015>018-024>025-161600-
NORTHWEST OHIO

CITY           SKY/WX    TMP DP  RH WIND       PRES   REMARKS
WAUSEON*       FAIR      55  50  82 CALM      30.19S
DEFIANCE       MOSUNNY   58  50  75 N6        30.20S
FINDLAY        MOSUNNY   58  49  72 N6        30.17F
TOLEDO EXPRESS PTSUNNY   57  48  72 NW6       30.18S
TOLEDO METCALF MOSUNNY   59  48  67 N5        30.19R
LIMA           PTSUNNY   56  50  80 N6        30.18S

$$
&&



USA.gov is the U.S. government's official web portal to all federal, state and local government web resources and services.